Location: Wayah Bald
(35.1806°N, 83.5603°W)
Time: 07:30:48
(UTC-04:00)

Meteor 1-27 Rocket - Visible Passes

Search period start: 29 May 2016 00:00
Search period end: 08 June 2016 00:00
Orbit: 831 x 910 km, 81.3° (Epoch: 28 May)

Date Brightness Start Highest point End Pass type
(mag) Time Alt. Az. Time Alt. Az. Time Alt. Az.
29 May 6.4 04:45:40 10° NNE 04:50:02 21° ENE 04:54:22 10° ESE visible
30 May 6.3 04:39:26 10° NNE 04:43:52 21° ENE 04:48:18 10° ESE visible
31 May 6.2 04:33:12 10° NNE 04:37:44 22° ENE 04:42:14 10° ESE visible
01 Jun 6.2 04:26:58 10° NNE 04:31:35 23° ENE 04:36:10 10° ESE visible
02 Jun 6.1 04:20:45 10° NNE 04:25:27 24° ENE 04:30:06 10° SE visible
03 Jun 6.0 04:14:32 10° NNE 04:19:18 24° ENE 04:24:01 10° SE visible
04 Jun 5.9 04:08:19 10° NNE 04:13:09 25° ENE 04:17:56 10° SE visible
04 Jun 4.4 05:51:06 10° NNW 05:56:32 39° W 06:01:57 10° SSW visible
05 Jun 5.8 04:02:06 10° NNE 04:07:00 26° ENE 04:11:51 10° SE visible
05 Jun 4.4 05:44:57 10° NNW 05:50:22 37° W 05:55:44 10° SSW visible
06 Jun 5.8 03:55:54 10° NNE 04:00:51 27° ENE 04:05:46 10° SE visible
06 Jun 4.5 05:38:50 10° NNW 05:44:12 36° W 05:49:31 10° SSW visible
07 Jun 5.7 03:49:41 10° NNE 03:54:43 28° ENE 03:59:40 10° SE visible
07 Jun 4.5 05:32:43 10° NNW 05:38:01 35° W 05:43:16 10° SSW visible
